{"data":{"norad_id":41028,"intl_designator":"2015-065A","name":"GSAT-15 (GAGAN/PRN 139)","alt_names":[],"object_type":"PAYLOAD","status":"ACTIVE","operator":null,"country":"IND","launch_date":"2015-11-10","launch_site_code":"FRGUI","launch_vehicle":null,"mission":null,"orbit_class":"UNKNOWN","rcs_meters":44.212,"size_class":null,"mass_kg":null,"dimensions":null,"purposes":["comms","nav"],"wikipedia_slug":null,"has_3d_model":false,"image_url":null,"decayed_at":null,"tle_current":{"epoch":"2026-09-20T01:58:07.055040Z","epoch_age_seconds":51295,"freshness":"FRESH","line1":"1 41028U 15065A   26263.08202610 -.00000262  00000+0  00000+0 0  9999","line2":"2 41028   0.0206 243.1258 0002020 271.6222 327.2451  1.00272878 39759","mean_motion":1.00272878,"eccentricity":0.000202,"inclination_deg":0.0206,"raan_deg":243.1258,"arg_perigee_deg":271.6222,"mean_anomaly_deg":327.2451,"bstar":0,"rev_number":3975,"period_min":1436.0812502061,"perigee_km":35777.771342434,"apogee_km":35794.805770359,"semimajor_km":42164.425556397,"source":"CELESTRAK","updated_at":"2026-09-20T09:00:46.835513Z"}}}